Weather History for Moline, IL

Change the Weather History Date:

Wednesday, January 23, 2013

  Actual Average Record
Temperature  
Mean Temperature 22 °F 22 °F  
Max Temperature 31 °F 31 °F 66 °F (1909)
Min Temperature 12 °F 14 °F -21 °F (1936)
Degree Days  
Heating Degree Days 43 43  
Month to date heating degree days 938 978  
Since 1 July heating degree days 3284 3399  
Cooling Degree Days 0 0  
Month to date cooling degree days 0 0  
Year to date cooling degree days 0 0  
Moisture  
Dew Point 5 °F    
Average Humidity 55    
Maximum Humidity 64    
Minimum Humidity 46    
Precipitation  
Precipitation T in 0.04 in 1.01 in (1938)
Month to date precipitation 0.74 1.12  
Year to date precipitation 0.74 1.12  
Snow  
Snow T in 0.30 in - ()
Month to date snowfall 1.6 7.0  
Since 1 July snowfall 6.9 17.5  
Snow Depth T in    
Sea Level Pressure  
Sea Level Pressure 30.28 in    
Wind  
Wind Speed 11 mph (West)    
Max Wind Speed 29 mph    
Max Gust Speed 37 mph    
Visibility 10 miles    
Events Snow    
T = Trace of Precipitation, MM = Missing Value Source: NWS Daily Summary

Daily Weather History Graph

Daily Weather History Graph

Search for Another Location

Airport:

Trip Planner

Search our weather history database for the weather conditions in past years. The results will help you decide how hot, cold, wet, or windy it might be!

Date:

Astronomy

Jan. 23, 2013 Rise Set
Actual Time 7:21 AM CST 5:07 PM CST
Civil Twilight 6:51 AM CST 5:37 PM CST
Nautical Twilight 6:17 AM CST 6:10 PM CST
Astronomical Twilight 5:44 AM CST 6:43 PM CST
Moon 2:17 PM CST (1/23) 4:33 AM CST (1/23)
Length of Visible Light 10h 45m
Length of Day
9h 46m
Waxing Gibbous, 89% of the Moon is Illuminated
Jan 23
Waxing Gibbous
Jan 26
Full
Feb 3
Last Quarter
Feb 10
New
Feb 17
First Quarter

Hourly Weather History & Observations

Time (CST) Temp. Windchill Dew Point Humidity Pressure Visibility Wind Dir Wind Speed Gust Speed Precip Events Conditions
12:52 AM 12.9 °F 3.8 °F -0.9 °F 54% 30.36 in 10.0 mi WSW 5.8 mph - N/A   Overcast
1:52 AM 12.9 °F 3.8 °F -0.0 °F 56% 30.36 in 10.0 mi WSW 5.8 mph - N/A   Overcast
2:52 AM 12.9 °F 3.8 °F -0.0 °F 56% 30.35 in 10.0 mi WSW 5.8 mph - N/A   Overcast
3:52 AM 14.0 °F 8.2 °F 1.0 °F 56% 30.32 in 10.0 mi WSW 3.5 mph - N/A   Overcast
4:52 AM 14.0 °F 8.2 °F 1.0 °F 56% 30.30 in 10.0 mi SSW 3.5 mph - N/A   Overcast
5:52 AM 15.1 °F 7.7 °F 1.0 °F 54% 30.30 in 10.0 mi SSW 4.6 mph - N/A   Overcast
6:52 AM 15.1 °F 5.2 °F 1.0 °F 54% 30.28 in 10.0 mi South 6.9 mph - N/A   Overcast
7:52 AM 16.0 °F 6.3 °F 3.0 °F 57% 30.28 in 10.0 mi SSW 6.9 mph - N/A   Overcast
8:52 AM 17.1 °F 7.6 °F 3.9 °F 56% 30.27 in 10.0 mi South 6.9 mph - N/A   Overcast
9:52 AM 18.0 °F 8.7 °F 5.0 °F 57% 30.27 in 10.0 mi SSW 6.9 mph - N/A   Overcast
10:52 AM 19.9 °F 11.1 °F 6.1 °F 55% 30.25 in 10.0 mi SSW 6.9 mph - N/A   Overcast
11:52 AM 24.1 °F 14.4 °F 8.1 °F 51% 30.19 in 10.0 mi SSW 9.2 mph - N/A   Overcast
12:52 PM 27.0 °F 17.3 °F 8.1 °F 45% 30.17 in 10.0 mi WSW 10.4 mph - N/A   Overcast
1:52 PM 28.0 °F 17.5 °F 10.0 °F 47% 30.15 in 10.0 mi West 12.7 mph - N/A   Overcast
2:52 PM 30.0 °F 18.7 °F 12.0 °F 47% 30.14 in 10.0 mi WNW 16.1 mph - N/A   Clear
3:52 PM 28.9 °F 16.1 °F 12.0 °F 49% 30.17 in 10.0 mi NW 19.6 mph 25.3 mph N/A   Clear
4:52 PM 27.0 °F 14.7 °F 10.9 °F 51% 30.18 in 10.0 mi NW 16.1 mph - N/A   Clear
5:52 PM 25.0 °F 12.2 °F 10.9 °F 55% 30.21 in 10.0 mi NW 16.1 mph 24.2 mph N/A   Clear
6:52 PM 23.0 °F 8.0 °F 8.1 °F 53% 30.25 in 10.0 mi NW 20.7 mph 29.9 mph N/A   Clear
7:52 PM 19.9 °F 4.8 °F 6.1 °F 55% 30.29 in 10.0 mi NW 18.4 mph - N/A   Clear
8:52 PM 16.0 °F -1.7 °F 3.0 °F 57% 30.33 in 10.0 mi NW 21.9 mph 36.8 mph N/A   Clear
9:52 PM 14.0 °F -1.4 °F 3.9 °F 64% 30.38 in 10.0 mi NW 15.0 mph 24.2 mph N/A   Clear
10:52 PM 12.9 °F -2.2 °F 1.9 °F 62% 30.41 in 10.0 mi NNW 13.8 mph 21.9 mph N/A   Clear
11:29 PM 12.2 °F -0.2 °F 3.2 °F 67% 30.40 in 5.0 mi North 9.2 mph 18.4 mph 0.00 in Snow Light Snow
11:52 PM 12.0 °F -3.4 °F -0.0 °F 59% 30.45 in 10.0 mi North 13.8 mph 18.4 mph 0.00 in   Scattered Clouds